Theta_e
312 310 307 306 306 305 304 303 303 303 303 302 301 300 299 300 302 301 301 300 301 301 301 301 302 303 303 303 304 305 305 304
310 305 303 305 304 303 303 302 303 302 301 300 299 299 300 302 300 301 300 301 300 300 301 302 302 303 304 303 304 304 304 307
304 304 303 303 302 302 303 302 303 302 301 300 300 300 302 301 301 301 301 300 299 300 301 303 303 304 309 306 306 304 303 301
304 304 303 302 302 302 303 302 303 302 300 300 302 302 302 301 301 300 300 299 298 299 301 302 302 304 306 306 306 301 301 301
302 303 302 302 302 304 302 302 302 302 301 303 305 303 302 302 301 300 300 298 297 298 300 301 301 302 304 304 306 303 300 300
303 303 302 302 302 302 302 302 301 302 302 303 305 303 302 302 301 299 298 297 297 297 299 301 300 302 304 302 304 304 306 306
303 303 302 301 302 303 302 301 302 302 303 303 304 303 302 302 301 299 299 296 297 298 300 301 300 300 302 302 302 302 311 310
304 303 302 302 303 302 302 301 301 302 304 305 305 304 303 302 301 299 299 296 298 300 300 300 301 297 301 301 300 305 303 303
305 304 303 304 304 302 301 302 302 305 306 305 304 304 303 302 301 299 298 298 297 298 299 298 297 297 300 300 298 305 304 302
305 303 303 305 304 302 302 301 306 305 305 304 304 303 304 305 301 301 299 296 297 297 296 297 296 298 300 300 298 298 302 304
305 304 304 305 303 303 302 305 307 305 303 303 304 303 303 302 300 300 299 297 296 296 295 295 296 296 299 300 298 298 301 302
304 306 305 304 309 306 306 307 306 304 303 304 304 302 302 301 301 301 299 297 296 296 295 295 295 295 298 300 300 299 300 302
308 308 307 308 310 311 311 310 307 305 305 305 303 303 302 302 301 302 300 300 299 298 296 296 295 295 298 300 299 299 296 296
308 308 307 307 308 309 310 310 311 307 305 305 304 304 303 302 302 303 298 299 298 295 296 297 297 296 296 293 293 295 294 293
304 302 301 302 302 301 296 297 301 304 305 304 304 303 304 303 302 301 301 302 296 295 294 294 295 296 295 293 293 295 294 291
298 299 300 298 294 293 295 294 293 294 297 300 305 307 308 307 305 305 303 301 302 302 295 294 293 294 294 294 292 294 297 294
294 295 296 291 291 291 293 293 290 290 292 295 298 300 302 305 308 306 305 304 302 303 301 294 294 293 293 292 292 296 300 302
290 289 292 292 291 291 291 289 288 288 290 293 294 296 298 299 300 300 302 304 304 304 302 302 300 292 292 293 293 295 296 301
289 289 289 291 291 290 290 288 288 288 289 292 291 292 292 293 295 295 297 298 298 303 305 304 294 299 299 298 297 296 297 299
287 287 286 286 290 287 287 287 287 287 288 288 286 286 288 289 290 292 292 293 294 296 298 299 294 296 303 301 300 300 299 300
Wind_Speed
5 4 6 6 6 7 7 6 6 7 5 5 5 5 5 6 6 5 6 6 7 7 6 7 9 9 8 5 5 7 5 5
6 6 7 6 6 7 6 6 7 6 5 6 5 5 6 6 5 5 6 6 7 7 6 7 7 8 7 2 3 6 6 6
8 8 7 7 6 6 5 6 6 6 7 4 6 6 4 4 5 6 7 7 7 7 6 6 6 6 4 5 5 5 6 6
8 7 6 7 7 7 6 7 7 6 7 6 6 4 6 6 6 7 7 7 7 6 6 6 7 4 9 10 9 6 6 5
7 7 7 7 8 8 8 8 6 7 7 6 6 6 6 7 6 6 7 8 5 7 7 6 7 7 10 10 12 5 6 6
6 7 5 7 5 7 7 6 7 7 7 7 6 7 7 7 6 8 7 5 7 6 7 7 6 7 11 10 10 6 5 6
7 7 7 6 8 9 7 7 7 7 8 7 7 7 7 7 7 8 7 5 5 6 5 7 6 7 10 11 9 5 3 4
8 9 5 7 9 7 7 9 7 9 10 9 7 8 8 8 8 7 5 4 6 5 6 5 7 7 9 9 8 4 2 3
8 7 9 12 9 7 9 9 10 13 9 7 7 7 9 9 6 4 6 7 5 6 6 5 6 6 6 9 7 3 1 1
9 8 10 12 8 7 10 9 16 9 7 7 8 8 7 6 7 7 6 6 6 6 5 6 4 5 4 5 6 6 3 2
6 8 10 10 7 7 9 16 11 9 7 9 8 7 7 7 6 7 5 4 5 6 4 4 5 4 4 4 6 7 4 3
5 6 8 8 15 10 10 14 8 6 8 10 8 7 8 7 5 5 5 5 5 5 5 5 4 4 4 3 2 3 4 2
7 6 7 10 9 10 12 13 7 8 9 11 8 7 8 8 7 8 6 7 7 5 6 5 5 5 6 7 6 3 1 1
12 13 15 13 13 14 13 16 16 11 11 9 7 7 7 7 7 8 12 14 12 14 13 9 6 9 6 9 8 8 6 2
14 11 10 11 14 15 16 16 17 16 13 11 5 4 5 6 7 8 9 7 14 14 15 15 14 11 14 11 10 8 7 4
11 11 14 16 14 16 15 16 15 15 14 16 12 11 7 8 9 10 9 9 9 7 10 12 17 17 15 15 12 7 3 5
11 13 14 15 15 15 14 16 16 14 12 10 11 9 9 13 10 11 10 10 10 10 5 4 13 16 14 8 12 5 7 8
14 13 14 13 12 12 13 13 13 11 11 17 12 11 11 11 10 10 12 13 12 10 9 10 4 6 6 9 10 9 8 9
9 10 12 12 12 12 13 14 14 10 9 10 16 11 11 11 11 12 13 11 11 14 12 10 11 10 11 10 12 12 12 11
8 8 10 10 10 10 11 11 12 8 8 9 10 11 11 12 12 12 11 11 13 15 13 14 19 9 12 10 11 13 14 14
Wind_Direction
195 188 208 207 181 170 169 176 195 205 199 215 252 271 284 284 269 298 309 304 299 299 299 296 297 290 283 298 286 304 295 295
186 200 193 175 171 167 176 200 212 214 222 233 258 274 273 247 263 287 292 294 289 293 304 290 290 288 281 232 294 301 301 289
206 193 184 180 172 180 199 218 220 225 240 257 268 267 245 239 265 275 282 282 282 291 296 306 298 301 294 323 303 282 284 292
198 175 171 179 192 201 205 219 230 227 250 262 270 250 215 241 260 265 273 281 293 294 313 304 297 283 295 298 312 302 297 284
173 176 188 193 205 200 210 216 227 234 247 254 259 205 221 247 257 264 268 276 286 291 295 300 298 293 287 295 304 291 284 279
178 190 209 227 225 224 231 227 230 237 251 251 240 201 226 250 256 256 263 263 271 282 284 287 293 291 290 298 310 290 281 280
185 190 202 213 218 226 221 233 231 241 251 242 233 208 223 236 249 258 261 250 275 271 266 291 299 296 296 313 336 297 339 18
187 203 208 216 237 217 215 233 227 239 245 242 229 215 216 229 237 256 260 234 261 282 285 277 297 298 303 321 336 298 69 56
213 197 203 217 224 195 228 236 234 239 242 242 237 229 220 223 241 234 254 270 279 286 283 282 291 282 308 346 338 290 6 28
223 213 226 238 220 188 233 229 243 240 231 242 247 235 222 225 221 256 253 252 276 282 290 301 286 282 310 338 337 304 289 223
232 219 243 259 254 203 236 246 244 233 228 245 241 239 231 220 222 241 260 233 252 273 256 275 284 288 279 299 315 330 334 229
339 323 267 276 275 242 231 265 252 223 238 246 240 226 237 228 221 226 234 243 247 252 247 249 260 274 266 252 290 332 358 44
292 342 324 320 338 4 6 334 302 262 262 263 248 222 228 238 230 226 218 229 200 223 232 211 219 252 241 213 188 214 183 13
47 40 42 25 28 23 11 3 355 331 299 282 271 272 250 226 232 259 230 232 228 225 233 192 220 239 208 190 212 195 202 204
32 31 44 44 39 34 18 10 1 358 0 337 317 303 287 270 279 265 256 252 235 233 229 225 211 203 221 212 194 206 207 193
29 26 32 34 28 24 11 16 5 356 359 352 349 336 332 305 287 273 256 259 250 246 225 207 221 223 214 209 167 158 211 211
31 32 32 24 23 14 6 8 2 352 345 343 344 330 336 334 321 301 278 265 255 259 256 201 223 219 214 169 167 191 216 226
34 24 13 12 12 8 1 356 350 342 336 335 339 337 338 336 334 336 338 316 278 257 247 248 199 116 183 199 203 207 209 226
32 24 6 357 358 7 357 355 349 342 338 340 345 341 339 337 333 335 324 323 317 318 280 253 222 212 216 202 202 208 213 214
14 6 3 353 354 356 348 346 352 340 335 349 348 343 338 333 327 318 315 314 317 316 311 312 315 241 235 220 214 210 209 211